Find Starlink 3617

NORAD ID: 51780 Int'l Des: 2022-017 Owner: SPXS Country: US Constellation: starlink operational
LEOCIRCULAR

現在のビュー

3D地球を読み込み中...

About Starlink 3617

Starlink 3617 (NORAD 51780) is a starlink constellation satellite (v1.5) launched Feb 25, 2022 by SPXS of US. It operates in LEO, CIRCULAR orbit with a mass of 297.00 kg.

次回通過

Passes for default location (London). Set your location on the main map for personalized predictions.

高度履歴

Loading altitude history...

軌道要素

1 51780U 22017N 26230.50651490 .00001975 00000-0 69568-4 0 9996
2 51780 53.1604 325.6284 0000634 77.1360 282.9713 15.34393944246941
Epoch: Aug 18, 2026 • Age: 12 hours

現在のステータス

高度 481.4 km
遠地点 / 近地点 N/A
速度 7.62 km/s
衛星直下点 -52.68°S, 109.92°W
打ち上げ日 Feb 25, 2022
運用期間 4.4 years
タイプ internet

技術仕様

分類 Payload
質量 297.00 kg
乾燥質量 275.00 kg
総質量 297.00 kg
長さ 0.20 m
直径 2.80 m
スパン 9.00 m
形状 Box + pan
製造者 SPXS
バスタイプ Starlink
フェーズステータス In Orbit
所有者/国 SPXS/US

Most Searched